sat.trackr.live / text

‹ back to catalog

STARLINK-2039

NORAD 47655 · 2021-012AM

PAYLOAD ACTIVE UNKNOWN

§ Identity

Operator
Country
US
Launch date
2021-02-16
Launch site
AFETR
Launch vehicle
Mass (kg)
RCS (m²)

Purposes: comms

External: N2YO · Heavens-Above · Gunter

§ Orbital elements

Epoch: 2026-09-13T01:12:45.441216Z

Period
93.80 min
Inclination
53.1579°
Eccentricity
0.0005064
Mean motion
15.35153771 rev/d
Perigee alt
457.0 km
Apogee alt
463.9 km
Semi-major
6,838.6 km
B*
7.7115e-4
RAAN
272.4900°
Arg perigee
33.6399°
Mean anomaly
326.4925°
Rev number
30,880

§ Raw data

STARLINK-20391 47655U 21012AM  26256.05052594  .00026409  00000+0  77115-3 0  99982 47655  53.1579 272.4900 0005064  33.6399 326.4925 15.35153771308809

JSON: /api/v1/satellites/47655 · /tle

For live sub-satellite position, see the globe view (requires WebGL).

§ Visibility from observer

Set your observer location to see the next 7 days of passes ≥ 10°. The values pass through the URL so the page stays shareable.

No JS? Fill the form by hand. The geolocation button needs JavaScript.